Wheeler AAF, HI

5:47 AM HST on December 18, 2017 (GMT -1000)
Wheeler Army Air Field

Weather History for PHHI - March, 2013

Change the Weather History Date:

Monday, March 18, 2013

  Actual Average Record
Temperature  
Mean Temperature 64 °F -  
Max Temperature 70 °F 74 °F 80 °F (1998)
Min Temperature 57 °F 59 °F 41 °F (1998)
Degree Days  
Heating Degree Days 2    
Growing Degree Days 14 (Base 50)    
Moisture  
Dew Point 55 °F    
Average Humidity 74    
Maximum Humidity 88    
Minimum Humidity 60    
Precipitation  
Precipitation 0.00 in - - ()
Sea Level Pressure  
Sea Level Pressure 29.98 in    
Wind  
Wind Speed 5 mph (NNW)    
Max Wind Speed 9 mph    
Max Gust Speed -    
Visibility 10 miles    
Events      
Averages and records for this station are not official NWS values.
T = Trace of Precipitation, MM = Missing Value Source: NWS Daily Summary

Daily Weather History Graph

Daily Weather History Graph

Search for Another Location

Airport or City:

Trip Planner

Search our weather history database for the weather conditions in past years. The results will help you decide how hot, cold, wet, or windy it might be!

Date:

Astronomy

Mar. 18, 2013 Rise Set
Actual Time 6:37 AM HST 6:42 PM HST
Civil Twilight 6:15 AM HST 7:04 PM HST
Nautical Twilight 5:49 AM HST 7:30 PM HST
Astronomical Twilight 5:23 AM HST 7:56 PM HST
Moon 11:27 AM HST 12:11 AM HST
Length of Visible Light 12h 49m
Length of Day
12h 05m
Waxing Crescent, 42% of the Moon is Illuminated
Mar 18
Waxing Crescent
Mar 19
First Quarter
Mar 26
Full
Apr 2
Last Quarter
Apr 9
New

Hourly Weather History & Observations

Time (HST) Temp. Dew Point Humidity Pressure Visibility Wind Dir Wind Speed Gust Speed Precip Events Conditions
12:55 AM 59.2 °F 54.1 °F 83% 30.01 in 10.0 mi NW 5.8 mph - N/A   Clear
1:55 AM 59.2 °F 53.8 °F 82% 29.99 in 10.0 mi NW 4.6 mph - N/A   Clear
2:55 AM 58.3 °F 53.6 °F 84% 29.98 in 10.0 mi NW 6.9 mph - N/A   Clear
3:55 AM 57.2 °F 52.7 °F 85% 29.96 in 10.0 mi NE 3.5 mph - N/A   Clear
4:55 AM 57.4 °F 52.9 °F 85% 29.97 in 10.0 mi NNW 4.6 mph - N/A   Clear
5:55 AM 57.0 °F 52.5 °F 85% 29.99 in 10.0 mi NNW 5.8 mph - N/A   Clear
6:55 AM 57.2 °F 52.3 °F 84% 30.01 in 10.0 mi NNW 4.6 mph - N/A   Mostly Cloudy
7:55 AM 61.3 °F 54.5 °F 78% 30.01 in 10.0 mi NNW 4.6 mph - N/A   Partly Cloudy
8:55 AM 66.4 °F 55.2 °F 67% 30.02 in 10.0 mi North 3.5 mph - N/A   Clear
9:55 AM 68.9 °F 54.5 °F 60% 30.02 in 10.0 mi Variable 4.6 mph - N/A   Overcast
10:55 AM 68.7 °F 55.6 °F 63% 30.01 in 10.0 mi Calm Calm - N/A   Overcast
11:55 AM 69.4 °F 56.8 °F 64% 30.00 in 10.0 mi NNW 8.1 mph - N/A   Overcast
12:55 PM 68.9 °F 55.9 °F 63% 29.97 in 10.0 mi NE 6.9 mph - N/A   Overcast
1:15 PM 68.0 °F 57.2 °F 68% 29.97 in 10.0 mi NW 9.2 mph - N/A   Light Drizzle
1:17 PM 68.0 °F 57.2 °F 68% 29.97 in 10.0 mi NNW 9.2 mph - N/A   Overcast
1:21 PM 68.0 °F 57.2 °F 68% 29.96 in 10.0 mi NNW 8.1 mph - N/A   Light Drizzle
1:25 PM 68.0 °F 57.2 °F 68% 29.96 in 10.0 mi NW 9.2 mph - N/A   Overcast
1:55 PM 70.0 °F 56.8 °F 63% 29.95 in 10.0 mi NW 6.9 mph - 0.00 in   Overcast
2:55 PM 69.3 °F 56.3 °F 63% 29.94 in 10.0 mi NNW 8.1 mph - N/A   Overcast
3:55 PM 69.8 °F 56.7 °F 63% 29.92 in 10.0 mi WNW 4.6 mph - N/A   Overcast
4:55 PM 68.4 °F 55.0 °F 62% 29.94 in 10.0 mi WNW 5.8 mph - N/A   Overcast
5:55 PM 67.1 °F 56.7 °F 69% 29.95 in 10.0 mi ENE 8.1 mph - N/A   Overcast
6:55 PM 65.5 °F 56.5 °F 73% 29.97 in 10.0 mi NE 4.6 mph - N/A   Scattered Clouds
7:55 PM 64.0 °F 56.3 °F 76% 29.98 in 10.0 mi WNW 3.5 mph - N/A   Partly Cloudy
8:55 PM 61.7 °F 55.9 °F 81% 29.99 in 10.0 mi WNW 4.6 mph - N/A   Clear
9:55 PM 60.3 °F 55.8 °F 85% 30.01 in 10.0 mi WNW 3.5 mph - N/A   Mostly Cloudy
10:55 PM 59.4 °F 55.8 °F 88% 30.01 in 10.0 mi WNW 4.6 mph - N/A   Clear
11:55 PM 58.5 °F 55.0 °F 88% 29.99 in 10.0 mi Calm Calm - N/A   Scattered Clouds